contact:dominique.lefevre@mio.osupytheas.fr, maurice.libes@osupytheas.fr, didier.mallarino@osupytheas.fr
Project:EMSO http://www.emso-fr.org/EMSO-France
Depth: 2436.0 m
Title:EMSO Ligure Ouest : Data MII capteur AQUADOPP
Date,Latitude,Longitude,X_East,Y_North,Z_Up,Amplitude_X,Amplitude_Y,Amplitude_Z,Batterie,SoundSpeed,Heading,Pitch,Roll,Pressure,TIS,Speed,Direction
, degrees North, degrees East, m.s-1, m.s-1,m.s-1, 1, 1, 1, Volt, m.s-1, degree, degree, degree, dbar, degree_C, m.s-1, degree
2021-07-24T00:04:02,42.805,6.029,0.008,-0.019,-0.018,104.0,104.0,101.0,13.3,1505.2,328.9,-0.8,1.8,2470.624,13.28,0.02,157.2
2021-07-24T00:07:03,42.805,6.029,-0.008,-0.01,-0.018,103.0,103.0,102.0,13.4,1505.2,325.3,-0.7,1.8,2470.566,13.28,0.012,218.7
2021-07-24T00:10:02,42.805,6.029,-0.002,0.008,0.004,103.0,103.0,102.0,13.4,1505.2,327.6,-0.7,1.8,2470.553,13.28,0.008,346.0
2021-07-24T00:13:03,42.805,6.029,0.006,-0.016,-0.009,104.0,104.0,101.0,13.4,1505.2,325.3,-0.8,1.8,2470.563,13.28,0.017,159.4
2021-07-24T00:16:03,42.805,6.029,-0.004,-0.03,-0.014,105.0,105.0,102.0,13.4,1505.2,329.0,-0.8,1.8,2470.574,13.28,0.03,187.6
2021-07-24T00:19:02,42.805,6.029,-0.004,-0.007,-0.042,104.0,104.0,102.0,13.4,1505.2,328.6,-0.8,1.8,2470.554,13.28,0.008,209.7
2021-07-24T00:22:03,42.805,6.029,-0.021,-0.012,-0.036,104.0,107.0,102.0,13.4,1505.2,328.6,-0.8,1.8,2470.548,13.28,0.024,240.3
2021-07-24T00:25:03,42.805,6.029,0.017,-0.003,-0.011,105.0,104.0,100.0,13.4,1505.2,324.9,-0.8,1.8,2470.576,13.28,0.017,100.0
2021-07-24T00:28:03,42.805,6.029,0.007,-0.011,-0.003,104.0,104.0,101.0,13.4,1505.2,328.3,-0.8,1.8,2470.556,13.28,0.013,147.5
2021-07-24T00:31:02,42.805,6.029,0.0,-0.023,-0.027,104.0,104.0,103.0,13.4,1505.2,327.4,-0.7,1.8,2470.519,13.28,0.023,180.0
2021-07-24T00:34:03,42.805,6.029,0.0,-0.02,-0.004,106.0,104.0,101.0,13.4,1505.2,329.0,-0.7,1.8,2470.512,13.28,0.02,180.0
2021-07-24T00:37:03,42.805,6.029,0.012,-0.024,-0.002,103.0,104.0,102.0,13.4,1505.2,326.9,-0.8,1.8,2470.534,13.28,0.026,153.4
2021-07-24T00:40:02,42.805,6.029,0.001,-0.014,-0.006,103.0,103.0,103.0,13.3,1505.2,325.6,-0.7,1.8,2470.511,13.28,0.014,175.9
2021-07-24T00:43:03,42.805,6.029,0.006,-0.008,0.005,104.0,104.0,101.0,13.4,1505.2,328.7,-0.8,1.8,2470.535,13.28,0.01,143.1
2021-07-24T00:46:02,42.805,6.029,-0.014,-0.011,-0.012,103.0,104.0,102.0,13.4,1505.2,326.7,-0.7,1.8,2470.509,13.28,0.017,231.8
2021-07-24T00:49:02,42.805,6.029,0.021,-0.005,-0.021,103.0,103.0,102.0,13.4,1505.2,325.7,-0.7,1.8,2470.494,13.28,0.021,103.4
2021-07-24T00:52:02,42.805,6.029,0.01,-0.02,-0.016,104.0,102.0,101.0,13.3,1505.2,326.1,-0.8,1.8,2470.487,13.28,0.022,153.4
2021-07-24T00:55:03,42.805,6.029,0.015,-0.032,-0.017,104.0,105.0,102.0,13.3,1505.2,326.3,-0.8,1.8,2470.511,13.28,0.035,154.9
2021-07-24T00:58:02,42.805,6.029,-0.002,-0.026,-0.025,103.0,103.0,101.0,13.4,1505.2,328.6,-0.8,1.8,2470.518,13.28,0.026,184.4
2021-07-24T01:04:02,42.805,6.029,0.02,-0.04,-0.025,105.0,105.0,104.0,13.4,1505.2,329.2,-0.7,1.8,2470.53,13.28,0.044,153.4
2021-07-24T01:07:02,42.805,6.029,0.013,-0.003,-0.01,103.0,104.0,105.0,13.3,1505.2,330.4,-0.8,1.8,2470.518,13.28,0.013,103.0
2021-07-24T01:10:02,42.805,6.029,0.015,-0.003,-0.006,103.0,102.0,102.0,13.4,1505.2,324.9,-0.7,1.8,2470.495,13.28,0.015,101.3
2021-07-24T01:13:03,42.805,6.029,0.0,-0.025,-0.029,104.0,102.0,102.0,13.4,1505.2,329.2,-0.8,1.8,2470.517,13.28,0.025,180.0
2021-07-24T01:16:03,42.805,6.029,0.015,-0.02,0.001,106.0,103.0,101.0,13.4,1505.2,327.7,-0.8,1.8,2470.526,13.28,0.025,143.1
2021-07-24T01:19:03,42.805,6.029,-0.007,-0.019,-0.031,105.0,107.0,101.0,13.4,1505.2,325.4,-0.7,1.8,2470.524,13.28,0.02,200.2
2021-07-24T01:22:02,42.805,6.029,0.0,-0.036,-0.006,104.0,105.0,101.0,13.3,1505.2,328.3,-0.8,1.8,2470.534,13.28,0.036,180.0
2021-07-24T01:25:03,42.805,6.029,0.005,-0.004,-0.015,105.0,104.0,102.0,13.4,1505.2,324.9,-0.8,1.8,2470.486,13.28,0.006,128.7
2021-07-24T01:28:03,42.805,6.029,0.002,-0.03,-0.027,105.0,103.0,103.0,13.3,1505.2,329.0,-0.7,1.8,2470.463,13.28,0.03,176.2
2021-07-24T01:31:03,42.805,6.029,-0.018,-0.007,-0.015,104.0,104.0,102.0,13.4,1505.2,325.5,-0.8,1.8,2470.498,13.28,0.019,248.8
2021-07-24T01:34:02,42.805,6.029,0.019,-0.029,0.016,104.0,105.0,102.0,13.4,1505.2,328.3,-0.7,1.9,2470.489,13.28,0.034,146.8
2021-07-24T01:37:02,42.805,6.029,-0.014,-0.033,-0.014,104.0,104.0,102.0,13.4,1505.2,330.2,-0.7,1.8,2470.523,13.28,0.035,203.0
2021-07-24T01:40:03,42.805,6.029,0.011,-0.007,-0.016,103.0,105.0,102.0,13.3,1505.2,328.1,-0.8,1.8,2470.521,13.28,0.013,122.5
2021-07-24T01:43:03,42.805,6.029,0.017,-0.017,0.013,103.0,103.0,102.0,13.4,1505.2,330.1,-0.7,1.8,2470.484,13.28,0.024,135.0
2021-07-24T01:46:03,42.805,6.029,0.011,-0.025,-0.012,103.0,104.0,103.0,13.4,1505.2,327.3,-0.8,1.8,2470.455,13.28,0.027,156.3
2021-07-24T01:49:03,42.805,6.029,0.0,-0.021,0.0,104.0,104.0,101.0,13.3,1505.2,325.5,-0.8,1.8,2470.491,13.28,0.021,180.0
2021-07-24T01:52:02,42.805,6.029,0.004,-0.003,0.006,105.0,103.0,103.0,13.4,1505.2,327.9,-0.7,1.8,2470.487,13.28,0.005,126.9
2021-07-24T01:55:03,42.805,6.029,0.006,-0.012,-0.01,105.0,103.0,102.0,13.4,1505.2,329.1,-0.7,1.8,2470.509,13.28,0.013,153.4
2021-07-24T01:58:03,42.805,6.029,0.004,-0.026,-0.014,105.0,104.0,102.0,13.4,1505.2,330.8,-0.8,1.8,2470.435,13.28,0.026,171.3
2021-07-24T02:04:02,42.805,6.029,-0.002,-0.003,0.004,104.0,104.0,103.0,13.3,1505.2,327.4,-0.8,1.8,2470.502,13.28,0.003,213.7
2021-07-24T02:07:02,42.805,6.029,0.025,-0.024,-0.022,105.0,104.0,101.0,13.3,1505.2,329.5,-0.8,1.8,2470.487,13.28,0.034,133.8
2021-07-24T02:10:03,42.805,6.029,0.002,-0.009,0.001,103.0,102.0,102.0,13.4,1505.2,325.4,-0.8,1.8,2470.483,13.28,0.009,167.5
2021-07-24T02:13:03,42.805,6.029,-0.016,-0.032,0.01,106.0,104.0,102.0,13.3,1505.2,327.6,-0.8,1.9,2470.46,13.28,0.035,206.6
2021-07-24T02:16:03,42.805,6.029,0.011,-0.028,-0.002,107.0,106.0,102.0,13.4,1505.2,326.9,-0.7,1.8,2470.481,13.28,0.03,158.6
2021-07-24T02:19:03,42.805,6.029,0.0,-0.022,-0.005,103.0,104.0,102.0,13.3,1505.2,328.1,-0.7,1.8,2470.484,13.28,0.022,180.0
2021-07-24T02:22:02,42.805,6.029,-0.006,-0.019,-0.007,103.0,104.0,102.0,13.3,1505.2,330.2,-0.8,1.8,2470.496,13.28,0.019,197.5
2021-07-24T02:25:03,42.805,6.029,0.0,-0.04,-0.041,105.0,103.0,102.0,13.4,1505.2,329.1,-0.7,1.8,2470.481,13.28,0.04,180.0
2021-07-24T02:28:03,42.805,6.029,-0.002,-0.034,-0.008,104.0,103.0,102.0,13.4,1505.2,329.7,-0.7,1.8,2470.48,13.28,0.034,183.4
2021-07-24T02:31:03,42.805,6.029,0.012,-0.006,-0.021,104.0,103.0,101.0,13.3,1505.2,328.4,-0.7,1.9,2470.47,13.28,0.013,116.6
2021-07-24T02:34:03,42.805,6.029,-0.004,-0.019,-0.013,103.0,104.0,102.0,13.4,1505.2,327.8,-0.7,1.8,2470.494,13.28,0.019,191.9
2021-07-24T02:37:02,42.805,6.029,-0.02,-0.025,-0.004,102.0,103.0,103.0,13.4,1505.2,326.7,-0.8,1.9,2470.463,13.28,0.032,218.7
2021-07-24T02:40:03,42.805,6.029,-0.011,-0.017,-0.016,103.0,101.0,102.0,13.4,1505.2,326.7,-0.7,1.8,2470.454,13.28,0.02,212.9
2021-07-24T02:43:03,42.805,6.029,-0.011,-0.019,0.01,104.0,104.0,101.0,13.4,1505.2,326.3,-0.8,1.8,2470.501,13.28,0.021,210.1
2021-07-24T02:46:03,42.805,6.029,0.005,-0.041,-0.041,103.0,103.0,101.0,13.4,1505.2,326.7,-0.7,1.8,2470.504,13.28,0.041,173.0
2021-07-24T02:49:03,42.805,6.029,0.017,-0.024,-0.024,103.0,104.0,101.0,13.3,1505.2,329.2,-0.7,1.8,2470.455,13.28,0.029,144.7
2021-07-24T02:52:02,42.805,6.029,-0.025,-0.023,-0.025,103.0,101.0,102.0,13.4,1505.2,328.9,-0.8,1.8,2470.463,13.28,0.033,227.4
2021-07-24T02:55:03,42.805,6.029,0.005,-0.027,0.0,103.0,102.0,102.0,13.4,1505.2,325.4,-0.7,1.8,2470.446,13.28,0.027,169.5
2021-07-24T02:58:03,42.805,6.029,-0.001,-0.019,0.002,102.0,104.0,101.0,13.4,1505.2,327.0,-0.7,1.8,2470.514,13.28,0.019,183.0
2021-07-24T03:04:02,42.805,6.029,0.001,-0.016,-0.017,104.0,101.0,101.0,13.4,1505.2,329.3,-0.8,1.8,2470.54,13.28,0.016,176.4
2021-07-24T03:07:02,42.805,6.029,0.021,-0.026,-0.017,102.0,101.0,101.0,13.4,1505.2,328.1,-0.8,1.8,2470.495,13.28,0.033,141.1
2021-07-24T03:10:03,42.805,6.029,0.003,-0.028,-0.006,102.0,102.0,101.0,13.3,1505.2,326.1,-0.8,1.8,2470.491,13.28,0.028,173.9
2021-07-24T03:13:03,42.805,6.029,-0.003,-0.021,-0.032,102.0,101.0,100.0,13.4,1505.2,328.2,-0.7,1.8,2470.508,13.28,0.021,188.1
2021-07-24T03:16:03,42.805,6.029,-0.005,-0.016,0.002,103.0,100.0,101.0,13.4,1505.2,327.9,-0.7,1.8,2470.503,13.28,0.016,197.4
2021-07-24T03:19:03,42.805,6.029,0.01,-0.027,-0.003,101.0,102.0,102.0,13.4,1505.2,327.6,-0.8,1.8,2470.508,13.28,0.028,159.7
2021-07-24T03:22:02,42.805,6.029,-0.007,-0.022,-0.004,102.0,101.0,101.0,13.4,1505.2,328.6,-0.8,1.9,2470.457,13.28,0.023,197.6
2021-07-24T03:25:03,42.805,6.029,-0.011,-0.021,-0.024,102.0,103.0,102.0,13.4,1505.2,328.2,-0.8,1.9,2470.474,13.28,0.023,207.6
2021-07-24T03:28:03,42.805,6.029,-0.015,-0.042,-0.036,102.0,102.0,101.0,13.4,1505.2,328.8,-0.7,1.8,2470.497,13.28,0.044,199.6
2021-07-24T03:31:03,42.805,6.029,0.013,-0.003,-0.012,101.0,103.0,101.0,13.3,1505.2,325.7,-0.8,1.8,2470.47,13.28,0.013,103.0
2021-07-24T03:34:03,42.805,6.029,0.015,-0.026,-0.003,104.0,103.0,99.0,13.4,1505.2,329.2,-0.7,1.8,2470.478,13.28,0.03,150.0
2021-07-24T03:37:02,42.805,6.029,0.015,-0.027,-0.029,104.0,103.0,101.0,13.4,1505.2,330.0,-0.8,1.8,2470.5,13.28,0.03,150.9
2021-07-24T03:40:03,42.805,6.029,0.007,-0.01,-0.006,103.0,101.0,101.0,13.3,1505.2,325.3,-0.7,1.8,2470.486,13.28,0.012,145.0
2021-07-24T03:43:03,42.805,6.029,0.0,-0.029,-0.012,103.0,103.0,102.0,13.4,1505.2,327.8,-0.8,1.9,2470.486,13.28,0.028,180.0
2021-07-24T03:46:03,42.805,6.029,0.001,-0.015,-0.021,103.0,103.0,101.0,13.4,1505.2,326.1,-0.7,1.8,2470.496,13.28,0.015,176.2
2021-07-24T03:49:03,42.805,6.029,-0.003,-0.031,-0.03,103.0,103.0,101.0,13.3,1505.2,329.4,-0.8,1.8,2470.491,13.28,0.031,185.5
2021-07-24T03:52:02,42.805,6.029,-0.006,-0.015,-0.01,105.0,103.0,100.0,13.3,1505.2,329.5,-0.8,1.8,2470.521,13.28,0.016,201.8
2021-07-24T03:55:03,42.805,6.029,0.026,-0.026,0.0,104.0,103.0,101.0,13.4,1505.2,329.1,-0.8,1.8,2470.499,13.28,0.036,135.0
2021-07-24T03:58:03,42.805,6.029,0.013,-0.013,-0.029,102.0,104.0,101.0,13.4,1505.2,330.1,-0.7,1.8,2470.531,13.28,0.018,135.0
2021-07-24T04:04:02,42.805,6.029,-0.013,-0.014,-0.023,102.0,104.0,101.0,13.4,1505.2,327.9,-0.7,1.8,2470.583,13.28,0.019,222.9
2021-07-24T04:07:02,42.805,6.029,0.0,-0.027,-0.021,103.0,102.0,101.0,13.3,1505.2,327.3,-0.8,1.8,2470.506,13.28,0.026,180.0
2021-07-24T04:10:03,42.805,6.029,0.019,-0.027,-0.009,103.0,103.0,102.0,13.3,1505.2,327.9,-0.8,1.8,2470.537,13.28,0.033,144.9
2021-07-24T04:13:03,42.805,6.029,-0.004,-0.014,-0.026,104.0,104.0,101.0,13.4,1505.2,327.5,-0.7,1.8,2470.534,13.28,0.014,195.9
2021-07-24T04:16:03,42.805,6.029,0.006,-0.003,0.018,104.0,103.0,101.0,13.3,1505.2,328.3,-0.7,1.8,2470.552,13.28,0.006,116.6
2021-07-24T04:19:03,42.805,6.029,0.01,-0.031,-0.008,105.0,103.0,101.0,13.4,1505.2,330.0,-0.8,1.8,2470.549,13.28,0.032,162.1
2021-07-24T04:22:02,42.805,6.029,0.013,-0.027,-0.02,103.0,105.0,100.0,13.4,1505.2,328.8,-0.8,1.8,2470.53,13.28,0.029,154.3
2021-07-24T04:25:03,42.805,6.029,-0.003,-0.007,0.015,103.0,104.0,101.0,13.4,1505.2,326.5,-0.7,1.8,2470.507,13.28,0.007,203.2
2021-07-24T04:28:03,42.805,6.029,0.023,-0.011,-0.013,104.0,103.0,102.0,13.3,1505.2,325.0,-0.7,1.8,2470.529,13.28,0.025,115.6
2021-07-24T04:31:03,42.805,6.029,0.006,-0.012,-0.013,103.0,103.0,103.0,13.4,1505.2,328.1,-0.7,1.8,2470.503,13.28,0.013,153.4
2021-07-24T04:34:03,42.805,6.029,0.0,-0.034,-0.027,103.0,103.0,102.0,13.4,1505.2,328.5,-0.8,1.8,2470.529,13.28,0.034,180.0
2021-07-24T04:37:02,42.805,6.029,0.012,-0.036,-0.014,103.0,103.0,101.0,13.3,1505.2,325.2,-0.7,1.8,2470.543,13.28,0.037,161.6
2021-07-24T04:40:03,42.805,6.029,0.011,-0.016,-0.007,104.0,104.0,102.0,13.3,1505.2,329.1,-0.8,1.8,2470.502,13.28,0.019,145.5
2021-07-24T04:43:03,42.805,6.029,0.003,-0.027,0.01,103.0,104.0,101.0,13.3,1505.2,325.5,-0.8,1.8,2470.539,13.28,0.027,173.7
2021-07-24T04:46:03,42.805,6.029,0.005,-0.038,-0.01,102.0,103.0,102.0,13.4,1505.2,329.0,-0.8,1.9,2470.52,13.28,0.038,172.5
2021-07-24T04:49:03,42.805,6.029,-0.002,-0.034,-0.017,103.0,104.0,102.0,13.3,1505.2,326.8,-0.8,1.8,2470.563,13.28,0.034,183.4
2021-07-24T04:52:03,42.805,6.029,-0.002,-0.008,0.001,104.0,103.0,101.0,13.4,1505.2,325.8,-0.7,1.8,2470.528,13.28,0.008,194.0
2021-07-24T04:55:03,42.805,6.029,0.003,-0.004,-0.019,105.0,103.0,100.0,13.3,1505.2,327.4,-0.7,1.8,2470.54,13.28,0.005,143.1
2021-07-24T04:58:03,42.805,6.029,-0.016,-0.027,-0.033,103.0,103.0,102.0,13.4,1505.2,329.6,-0.8,1.8,2470.526,13.28,0.031,210.7
2021-07-24T05:04:02,42.805,6.029,0.015,-0.023,-0.025,102.0,103.0,102.0,13.3,1505.2,326.3,-0.8,1.8,2470.589,13.28,0.027,146.9
2021-07-24T05:07:03,42.805,6.029,0.015,0.005,0.003,103.0,103.0,101.0,13.4,1505.2,330.2,-0.8,1.8,2470.602,13.28,0.015,71.6
2021-07-24T05:10:03,42.805,6.029,0.004,-0.007,0.0,103.0,103.0,101.0,13.4,1505.2,328.6,-0.8,1.8,2470.546,13.28,0.008,150.3
2021-07-24T05:13:03,42.805,6.029,0.021,-0.027,0.016,103.0,105.0,102.0,13.4,1505.2,326.8,-0.8,1.8,2470.604,13.28,0.034,142.1
2021-07-24T05:16:03,42.805,6.029,-0.007,-0.026,0.003,103.0,104.0,101.0,13.3,1505.2,328.9,-0.7,1.8,2470.586,13.28,0.026,195.1
2021-07-24T05:19:03,42.805,6.029,0.008,-0.029,-0.007,103.0,103.0,102.0,13.3,1505.2,326.2,-0.8,1.8,2470.563,13.28,0.03,164.6
2021-07-24T05:22:03,42.805,6.029,0.002,-0.028,-0.001,104.0,103.0,101.0,13.4,1505.2,328.5,-0.7,1.8,2470.589,13.28,0.028,175.9
2021-07-24T05:25:03,42.805,6.029,0.007,-0.029,-0.009,103.0,103.0,100.0,13.3,1505.2,326.5,-0.8,1.8,2470.603,13.28,0.029,166.4
2021-07-24T05:28:03,42.805,6.029,0.02,-0.026,-0.002,104.0,103.0,101.0,13.4,1505.2,330.4,-0.8,1.8,2470.557,13.28,0.032,142.4
2021-07-24T05:31:03,42.805,6.029,0.015,-0.012,-0.006,103.0,104.0,102.0,13.3,1505.2,328.3,-0.8,1.9,2470.595,13.28,0.019,128.7
2021-07-24T05:34:03,42.805,6.029,0.008,-0.024,-0.013,104.0,103.0,102.0,13.4,1505.2,327.4,-0.8,1.8,2470.57,13.28,0.025,161.6
2021-07-24T05:37:03,42.805,6.029,0.004,-0.001,0.005,103.0,103.0,102.0,13.4,1505.2,328.2,-0.8,1.8,2470.584,13.28,0.004,104.0
2021-07-24T05:40:03,42.805,6.029,0.013,-0.045,-0.014,105.0,102.0,102.0,13.4,1505.2,329.2,-0.8,1.9,2470.593,13.28,0.046,163.9
2021-07-24T05:43:03,42.805,6.029,-0.007,-0.028,-0.006,103.0,103.0,102.0,13.4,1505.2,326.8,-0.8,1.8,2470.552,13.28,0.028,194.0
2021-07-24T05:46:03,42.805,6.029,0.01,-0.018,-0.004,103.0,103.0,102.0,13.4,1505.2,329.8,-0.8,1.8,2470.592,13.28,0.02,150.9
2021-07-24T05:49:03,42.805,6.029,-0.006,-0.018,0.0,104.0,103.0,102.0,13.3,1505.2,326.1,-0.7,1.8,2470.576,13.28,0.018,198.4
2021-07-24T05:52:03,42.805,6.029,0.015,-0.022,-0.024,104.0,104.0,102.0,13.4,1505.2,327.7,-0.7,1.8,2470.564,13.28,0.026,145.7
2021-07-24T05:55:03,42.805,6.029,0.02,-0.012,-0.021,103.0,104.0,103.0,13.4,1505.2,324.8,-0.7,1.8,2470.565,13.28,0.023,121.0
2021-07-24T05:58:03,42.805,6.029,0.013,-0.034,-0.028,103.0,103.0,102.0,13.4,1505.2,326.7,-0.7,1.8,2470.576,13.28,0.036,159.1
2021-07-24T06:04:02,42.805,6.029,0.008,-0.033,-0.034,103.0,103.0,102.0,13.4,1505.2,330.5,-0.8,1.8,2470.613,13.28,0.033,166.4
2021-07-24T06:07:03,42.805,6.029,-0.007,-0.037,0.02,105.0,102.0,101.0,13.4,1505.2,324.8,-0.7,1.8,2470.593,13.28,0.037,190.7
2021-07-24T06:10:03,42.805,6.029,0.02,-0.024,-0.006,103.0,103.0,101.0,13.4,1505.2,326.4,-0.8,1.8,2470.599,13.28,0.031,140.2
2021-07-24T06:13:03,42.805,6.029,-0.002,-0.011,-0.012,103.0,103.0,101.0,13.4,1505.2,326.7,-0.8,1.8,2470.614,13.28,0.011,190.3
2021-07-24T06:16:03,42.805,6.029,0.025,-0.022,-0.013,103.0,103.0,102.0,13.4,1505.2,329.6,-0.8,1.8,2470.621,13.28,0.033,131.3
2021-07-24T06:19:03,42.805,6.029,0.016,-0.018,-0.014,104.0,103.0,101.0,13.4,1505.2,328.1,-0.8,1.8,2470.622,13.28,0.024,138.4
2021-07-24T06:22:03,42.805,6.029,0.015,-0.01,-0.009,104.0,104.0,101.0,13.4,1505.2,328.9,-0.8,1.8,2470.619,13.28,0.018,123.7
2021-07-24T06:25:03,42.805,6.029,0.02,0.006,-0.008,102.0,104.0,102.0,13.4,1505.2,327.2,-0.7,1.8,2470.59,13.28,0.02,73.3
2021-07-24T06:28:03,42.805,6.029,0.0,-0.015,-0.01,103.0,104.0,101.0,13.4,1505.2,325.7,-0.8,1.8,2470.602,13.28,0.015,180.0
2021-07-24T06:31:03,42.805,6.029,0.008,-0.031,-0.001,104.0,104.0,101.0,13.4,1505.2,326.3,-0.7,1.8,2470.592,13.28,0.032,165.5
2021-07-24T06:34:03,42.805,6.029,0.007,-0.028,-0.013,104.0,104.0,101.0,13.4,1505.2,324.9,-0.8,1.8,2470.616,13.28,0.028,166.0
2021-07-24T06:37:03,42.805,6.029,0.009,-0.006,-0.029,104.0,104.0,101.0,13.4,1505.2,328.3,-0.8,1.8,2470.629,13.28,0.01,123.7
2021-07-24T06:40:03,42.805,6.029,-0.006,-0.029,-0.007,104.0,103.0,103.0,13.4,1505.2,330.6,-0.7,1.8,2470.621,13.28,0.029,191.7
2021-07-24T06:43:03,42.805,6.029,0.014,-0.026,-0.028,104.0,104.0,102.0,13.3,1505.2,326.8,-0.8,1.8,2470.587,13.28,0.029,151.7
2021-07-24T06:46:03,42.805,6.029,-0.011,-0.025,-0.037,104.0,104.0,102.0,13.4,1505.2,326.9,-0.8,1.8,2470.572,13.28,0.027,203.7
2021-07-24T06:49:03,42.805,6.029,0.002,-0.021,-0.01,104.0,104.0,103.0,13.4,1505.2,328.1,-0.7,1.8,2470.583,13.28,0.021,174.6
2021-07-24T06:52:03,42.805,6.029,0.014,-0.029,-0.009,103.0,104.0,102.0,13.4,1505.2,329.8,-0.8,1.8,2470.623,13.28,0.032,154.2
2021-07-24T06:55:03,42.805,6.029,0.004,-0.029,-0.025,105.0,105.0,102.0,13.4,1505.2,328.3,-0.8,1.8,2470.597,13.28,0.029,172.2
2021-07-24T06:58:03,42.805,6.029,0.007,-0.019,-0.013,106.0,104.0,103.0,13.4,1505.2,330.3,-0.8,1.8,2470.598,13.28,0.02,159.8
2021-07-24T07:04:03,42.805,6.029,0.0,-0.037,0.007,106.0,105.0,103.0,13.4,1505.2,330.0,-0.8,1.8,2470.607,13.28,0.037,180.0
2021-07-24T07:07:03,42.805,6.029,-0.001,-0.01,-0.023,106.0,103.0,103.0,13.3,1505.2,326.0,-0.7,1.8,2470.623,13.28,0.01,185.7
2021-07-24T07:10:03,42.805,6.029,0.009,-0.043,-0.007,106.0,104.0,103.0,13.4,1505.2,325.3,-0.8,1.8,2470.629,13.28,0.043,168.2
2021-07-24T07:13:03,42.805,6.029,-0.01,-0.028,-0.03,105.0,103.0,104.0,13.3,1505.2,327.6,-0.8,1.8,2470.61,13.28,0.029,199.6
2021-07-24T07:16:03,42.805,6.029,-0.001,-0.026,-0.016,104.0,104.0,102.0,13.4,1505.2,329.5,-0.8,1.8,2470.578,13.28,0.026,182.2
2021-07-24T07:19:03,42.805,6.029,-0.006,-0.032,-0.032,105.0,105.0,102.0,13.4,1505.2,326.3,-0.7,1.8,2470.622,13.28,0.032,190.6
2021-07-24T07:22:03,42.805,6.029,-0.01,-0.031,-0.029,106.0,105.0,103.0,13.4,1505.2,329.8,-0.8,1.8,2470.609,13.28,0.032,197.9
2021-07-24T07:25:03,42.805,6.029,0.002,-0.03,-0.024,104.0,105.0,103.0,13.4,1505.2,328.8,-0.7,1.8,2470.621,13.28,0.03,176.2
2021-07-24T07:28:03,42.805,6.029,-0.001,-0.028,-0.036,105.0,105.0,102.0,13.3,1505.2,330.3,-0.7,1.8,2470.612,13.28,0.028,182.0
2021-07-24T07:31:03,42.805,6.029,0.039,-0.008,0.035,105.0,106.0,102.0,13.3,1505.2,328.2,-0.7,1.9,2470.588,13.28,0.039,101.6
2021-07-24T07:34:03,42.805,6.029,-0.001,-0.024,-0.016,104.0,105.0,102.0,13.4,1505.2,329.9,-0.8,1.8,2470.613,13.28,0.024,182.4
2021-07-24T07:37:03,42.805,6.029,-0.016,-0.031,-0.003,105.0,104.0,102.0,13.4,1505.2,326.0,-0.7,1.8,2470.617,13.28,0.034,207.3
2021-07-24T07:40:03,42.805,6.029,0.003,-0.025,-0.009,107.0,105.0,102.0,13.3,1505.2,327.0,-0.7,1.8,2470.575,13.28,0.025,173.2
2021-07-24T07:43:03,42.805,6.029,-0.006,-0.034,-0.018,105.0,104.0,103.0,13.4,1505.2,324.8,-0.7,1.8,2470.598,13.28,0.034,190.0
2021-07-24T07:46:03,42.805,6.029,0.003,-0.033,-0.02,106.0,104.0,102.0,13.3,1505.2,327.5,-0.8,1.8,2470.615,13.28,0.033,174.8
2021-07-24T07:49:03,42.805,6.029,0.0,-0.024,-0.003,104.0,105.0,103.0,13.3,1505.2,325.5,-0.7,1.8,2470.602,13.28,0.024,180.0
2021-07-24T07:52:03,42.805,6.029,0.004,-0.042,-0.044,109.0,104.0,102.0,13.4,1505.2,326.7,-0.7,1.8,2470.572,13.28,0.042,174.6
2021-07-24T07:55:03,42.805,6.029,-0.001,-0.015,-0.021,105.0,104.0,102.0,13.4,1505.2,330.0,-0.8,1.8,2470.613,13.28,0.015,183.8
2021-07-24T07:58:03,42.805,6.029,-0.013,-0.037,-0.019,103.0,106.0,103.0,13.3,1505.2,325.1,-0.7,1.8,2470.596,13.28,0.039,199.4
2021-07-24T08:04:03,42.805,6.029,0.002,-0.033,-0.01,104.0,104.0,102.0,13.4,1505.2,327.1,-0.8,1.8,2470.629,13.28,0.033,176.5
2021-07-24T08:07:03,42.805,6.029,0.003,-0.031,-0.019,106.0,104.0,103.0,13.4,1505.2,326.5,-0.8,1.8,2470.608,13.28,0.031,174.5
2021-07-24T08:10:03,42.805,6.029,0.0,-0.048,-0.036,103.0,105.0,102.0,13.4,1505.2,326.3,-0.8,1.9,2470.588,13.28,0.048,180.0
2021-07-24T08:13:03,42.805,6.029,0.0,-0.022,-0.002,104.0,105.0,102.0,13.4,1505.2,328.8,-0.8,1.8,2470.644,13.28,0.022,180.0
2021-07-24T08:16:03,42.805,6.029,0.007,-0.013,0.004,104.0,105.0,102.0,13.3,1505.2,330.4,-0.7,1.8,2470.578,13.28,0.014,151.7
2021-07-24T08:19:03,42.805,6.029,-0.012,-0.03,-0.017,104.0,105.0,101.0,13.3,1505.2,326.5,-0.8,1.8,2470.579,13.28,0.032,201.8
2021-07-24T08:22:03,42.805,6.029,-0.004,-0.013,0.0,105.0,104.0,101.0,13.4,1505.2,329.5,-0.8,1.9,2470.602,13.28,0.013,197.1
2021-07-24T08:25:03,42.805,6.029,0.021,-0.018,-0.013,107.0,104.0,103.0,13.3,1505.2,328.4,-0.7,1.8,2470.587,13.28,0.027,130.6
2021-07-24T08:28:03,42.805,6.029,-0.018,-0.021,-0.019,105.0,103.0,102.0,13.4,1505.2,325.7,-0.7,1.8,2470.583,13.28,0.027,220.6
2021-07-24T08:31:03,42.805,6.029,-0.012,-0.011,-0.032,104.0,103.0,103.0,13.3,1505.2,328.8,-0.8,1.8,2470.592,13.28,0.016,227.5
2021-07-24T08:34:03,42.805,6.029,-0.001,-0.023,-0.002,104.0,103.0,103.0,13.3,1505.2,327.1,-0.7,1.8,2470.571,13.28,0.023,182.5
2021-07-24T08:37:03,42.805,6.029,-0.01,-0.03,-0.012,103.0,104.0,104.0,13.3,1505.2,329.2,-0.8,1.8,2470.544,13.28,0.031,198.4
2021-07-24T08:40:03,42.805,6.029,-0.012,-0.017,-0.021,105.0,103.0,103.0,13.4,1505.2,328.3,-0.8,1.8,2470.581,13.28,0.02,215.2
2021-07-24T08:43:03,42.805,6.029,-0.003,-0.008,-0.045,104.0,106.0,101.0,13.4,1505.2,327.1,-0.8,1.8,2470.55,13.28,0.008,200.6
2021-07-24T08:46:03,42.805,6.029,0.001,-0.024,-0.007,104.0,104.0,102.0,13.4,1505.2,326.9,-0.7,1.8,2470.576,13.28,0.024,177.6
2021-07-24T08:49:03,42.805,6.029,-0.012,-0.028,-0.026,105.0,103.0,102.0,13.3,1505.2,328.0,-0.7,1.8,2470.547,13.28,0.03,203.2
2021-07-24T08:52:03,42.805,6.029,0.004,-0.038,-0.021,105.0,104.0,102.0,13.4,1505.2,328.6,-0.8,1.8,2470.562,13.28,0.038,174.0
2021-07-24T08:55:03,42.805,6.029,-0.001,-0.015,0.014,104.0,103.0,104.0,13.3,1505.2,326.0,-0.7,1.8,2470.579,13.28,0.015,183.8
2021-07-24T08:58:03,42.805,6.029,-0.008,-0.042,-0.025,106.0,105.0,102.0,13.4,1505.2,325.5,-0.8,1.9,2470.538,13.28,0.042,190.8
2021-07-24T09:04:03,42.805,6.029,-0.002,-0.03,-0.044,104.0,103.0,102.0,13.3,1505.2,328.7,-0.8,1.8,2470.559,13.28,0.03,183.8
2021-07-24T09:07:03,42.805,6.029,0.007,-0.022,-0.023,104.0,104.0,102.0,13.4,1505.2,330.0,-0.8,1.8,2470.569,13.28,0.023,162.4
2021-07-24T09:10:03,42.805,6.029,-0.007,-0.018,-0.017,105.0,104.0,102.0,13.3,1505.2,325.6,-0.8,1.8,2470.573,13.28,0.019,201.2
2021-07-24T09:13:03,42.805,6.029,-0.012,-0.014,-0.004,105.0,104.0,102.0,13.3,1505.2,326.7,-0.7,1.8,2470.555,13.28,0.018,220.6
2021-07-24T09:16:03,42.805,6.029,0.0,-0.025,-0.042,106.0,105.0,101.0,13.4,1505.2,328.5,-0.7,1.8,2470.556,13.28,0.025,180.0
2021-07-24T09:19:03,42.805,6.029,0.005,-0.042,-0.011,104.0,104.0,103.0,13.4,1505.2,325.3,-0.7,1.8,2470.549,13.28,0.042,173.2
2021-07-24T09:22:03,42.805,6.029,0.007,-0.03,-0.011,105.0,104.0,102.0,13.3,1505.2,327.8,-0.8,1.8,2470.576,13.28,0.03,166.9
2021-07-24T09:25:03,42.805,6.029,0.013,-0.018,-0.006,106.0,104.0,103.0,13.4,1505.2,327.2,-0.7,1.8,2470.564,13.28,0.022,144.2
2021-07-24T09:28:03,42.805,6.029,-0.005,-0.003,-0.017,104.0,105.0,102.0,13.3,1505.2,326.7,-0.8,1.8,2470.55,13.28,0.005,239.0
2021-07-24T09:31:03,42.805,6.029,0.018,-0.011,-0.023,105.0,105.0,103.0,13.4,1505.2,324.7,-0.8,1.8,2470.566,13.28,0.021,121.4
2021-07-24T09:34:03,42.805,6.029,-0.001,-0.018,-0.038,104.0,104.0,103.0,13.3,1505.2,329.6,-0.7,1.8,2470.528,13.28,0.018,183.2
2021-07-24T09:37:03,42.805,6.029,0.001,-0.034,-0.018,104.0,105.0,102.0,13.4,1505.2,328.7,-0.8,1.8,2470.546,13.28,0.034,178.3
2021-07-24T09:40:03,42.805,6.029,-0.014,-0.018,-0.027,104.0,104.0,102.0,13.3,1505.2,331.0,-0.7,1.8,2470.549,13.28,0.022,217.9
2021-07-24T09:43:03,42.805,6.029,0.009,-0.012,-0.012,105.0,105.0,102.0,13.4,1505.2,329.0,-0.7,1.8,2470.579,13.28,0.015,143.1
2021-07-24T09:46:03,42.805,6.029,-0.001,-0.028,0.003,105.0,105.0,102.0,13.3,1505.2,329.1,-0.8,1.8,2470.552,13.28,0.028,182.0
2021-07-24T09:49:03,42.805,6.029,-0.018,-0.029,0.001,104.0,105.0,102.0,13.4,1505.2,328.1,-0.8,1.8,2470.57,13.28,0.034,211.8
2021-07-24T09:52:03,42.805,6.029,-0.006,-0.045,-0.015,105.0,105.0,102.0,13.4,1505.2,328.0,-0.7,1.8,2470.554,13.28,0.045,187.6